Time,TemperatureF,DewpointF,PressureIn,WindDirection,WindDirectionDegrees,WindSpeedMPH,WindSpeedGustMPH,Humidity,HourlyPrecipIn,Conditions,Clouds,dailyrainin,SoftwareType,DateUTC
2013-03-08 00:01:00,39.0,36.0,26.14,North,351,1.0,1.0,90,-99.99,,,-99.99,,2013-03-08 08:01:00,
2013-03-08 00:11:00,40.0,38.0,26.17,WNW,283,1.0,3.0,91,-99.99,,,-99.99,,2013-03-08 08:11:00,
2013-03-08 00:21:00,40.0,38.0,26.17,NNE,13,1.0,2.0,91,-99.99,,,-99.99,,2013-03-08 08:21:00,
2013-03-08 00:31:00,40.0,38.0,26.17,NNW,341,1.0,2.0,92,-99.99,,,-99.99,,2013-03-08 08:31:00,
2013-03-08 00:41:00,41.0,39.0,26.20,North,0,1.0,1.0,93,-99.99,,,-99.99,,2013-03-08 08:41:00,
2013-03-08 00:52:00,41.0,39.0,26.20,North,352,1.0,2.0,93,-99.99,,,-99.99,,2013-03-08 08:52:00,
2013-03-08 01:02:00,41.0,39.0,26.20,NW,316,1.0,3.0,93,-99.99,,,-99.99,,2013-03-08 09:02:00,
2013-03-08 01:11:00,41.0,39.0,26.20,SSW,212,2.0,5.0,94,-99.99,,,-99.99,,2013-03-08 09:11:00,
2013-03-08 01:21:00,41.0,39.0,26.23,South,191,8.0,13.0,94,-99.99,,,-99.99,,2013-03-08 09:21:00,
2013-03-08 01:31:00,41.0,39.0,26.23,South,186,8.0,13.0,94,-99.99,,,-99.99,,2013-03-08 09:31:00,
2013-03-08 01:42:00,42.0,40.0,26.23,South,191,8.0,16.0,94,-99.99,,,-99.99,,2013-03-08 09:42:00,
2013-03-08 01:51:00,41.0,39.0,26.23,South,188,11.0,19.0,94,-99.99,,,-99.99,,2013-03-08 09:51:00,
2013-03-08 02:01:00,41.0,39.0,26.20,SSW,192,13.0,19.0,94,-99.99,,,-99.99,,2013-03-08 10:01:00,
2013-03-08 02:11:00,41.0,39.0,26.20,South,191,11.0,17.0,93,-99.99,,,-99.99,,2013-03-08 10:11:00,
2013-03-08 02:21:00,41.0,39.0,26.20,SSW,193,9.0,15.0,93,-99.99,,,-99.99,,2013-03-08 10:21:00,
2013-03-08 02:31:00,40.0,38.0,26.20,South,181,10.0,14.0,93,-99.99,,,-99.99,,2013-03-08 10:31:00,
2013-03-08 02:41:00,40.0,38.0,26.20,South,182,9.0,17.0,93,-99.99,,,-99.99,,2013-03-08 10:41:00,
2013-03-08 02:51:00,40.0,38.0,26.17,South,182,10.0,15.0,91,-99.99,,,-99.99,,2013-03-08 10:51:00,
2013-03-08 03:01:00,40.0,38.0,26.17,South,182,10.0,15.0,91,-99.99,,,-99.99,,2013-03-08 11:01:00,
2013-03-08 03:11:00,39.0,36.0,26.14,South,174,8.0,13.0,89,-99.99,,,-99.99,,2013-03-08 11:11:00,
2013-03-08 03:21:00,39.0,36.0,26.14,SSE,168,3.0,12.0,90,-99.99,,,-99.99,,2013-03-08 11:21:00,
2013-03-08 03:32:00,39.0,36.0,26.14,SSE,160,7.0,13.0,90,-99.99,,,-99.99,,2013-03-08 11:32:00,
2013-03-08 03:41:00,39.0,37.0,26.17,South,169,7.0,13.0,91,-99.99,,,-99.99,,2013-03-08 11:41:00,
2013-03-08 03:52:00,39.0,37.0,26.17,South,177,14.0,24.0,91,-99.99,,,-99.99,,2013-03-08 11:52:00,
2013-03-08 04:01:00,39.0,37.0,26.17,South,181,13.0,19.0,92,-99.99,,,-99.99,,2013-03-08 12:01:00,
2013-03-08 04:11:00,39.0,37.0,26.17,South,180,13.0,18.0,92,-99.99,,,-99.99,,2013-03-08 12:11:00,
2013-03-08 04:22:00,39.0,37.0,26.20,South,184,11.0,16.0,93,-99.99,,,-99.99,,2013-03-08 12:22:00,
2013-03-08 04:32:00,39.0,37.0,26.20,South,189,12.0,17.0,94,-99.99,,,-99.99,,2013-03-08 12:32:00,
2013-03-08 04:42:00,39.0,38.0,26.20,South,188,10.0,15.0,95,-99.99,,,-99.99,,2013-03-08 12:42:00,
2013-03-08 04:52:00,39.0,38.0,26.23,South,190,9.0,13.0,95,-99.99,,,-99.99,,2013-03-08 12:52:00,
2013-03-08 05:01:00,39.0,38.0,26.23,SSW,196,8.0,11.0,96,-99.99,,,-99.99,,2013-03-08 13:01:00,
2013-03-08 05:11:00,39.0,38.0,26.23,SSW,204,8.0,16.0,96,-99.99,,,-99.99,,2013-03-08 13:11:00,
2013-03-08 05:21:00,39.0,38.0,26.23,SW,225,8.0,23.0,96,-99.99,,,-99.99,,2013-03-08 13:21:00,
2013-03-08 05:32:00,38.0,37.0,26.20,SSW,211,11.0,24.0,95,-99.99,,,-99.99,,2013-03-08 13:32:00,
2013-03-08 05:42:00,37.0,35.0,26.17,SSW,209,10.0,19.0,94,-99.99,,,-99.99,,2013-03-08 13:42:00,
2013-03-08 05:52:00,37.0,35.0,26.20,SW,224,7.0,15.0,94,-99.99,,,-99.99,,2013-03-08 13:52:00,
2013-03-08 06:02:00,37.0,35.0,26.20,SW,236,5.0,12.0,94,-99.99,,,-99.99,,2013-03-08 14:02:00,
2013-03-08 06:11:00,36.0,34.0,26.20,SW,231,6.0,14.0,94,-99.99,,,-99.99,,2013-03-08 14:11:00,
2013-03-08 06:21:00,35.0,33.0,26.17,WSW,251,4.0,10.0,93,-99.99,,,-99.99,,2013-03-08 14:21:00,
2013-03-08 06:32:00,35.0,33.0,26.17,WSW,245,4.0,13.0,94,-99.99,,,-99.99,,2013-03-08 14:32:00,
2013-03-08 06:42:00,35.0,33.0,26.17,West,262,4.0,11.0,94,-99.99,,,-99.99,,2013-03-08 14:42:00,
2013-03-08 06:52:00,35.0,33.0,26.17,West,279,5.0,10.0,94,-99.99,,,-99.99,,2013-03-08 14:52:00,
2013-03-08 07:02:00,34.0,32.0,26.17,West,272,4.0,9.0,94,-99.99,,,-99.99,,2013-03-08 15:02:00,
2013-03-08 07:11:00,34.0,33.0,26.17,WSW,256,2.0,6.0,95,-99.99,,,-99.99,,2013-03-08 15:11:00,
2013-03-08 07:21:00,34.0,33.0,26.17,WSW,251,1.0,7.0,95,-99.99,,,-99.99,,2013-03-08 15:21:00,
2013-03-08 07:31:00,35.0,34.0,26.20,West,273,4.0,8.0,95,-99.99,,,-99.99,,2013-03-08 15:31:00,
2013-03-08 07:42:00,36.0,35.0,26.20,West,275,4.0,12.0,95,-99.99,,,-99.99,,2013-03-08 15:42:00,
2013-03-08 07:52:00,37.0,35.0,26.17,West,268,3.0,8.0,94,-99.99,,,-99.99,,2013-03-08 15:52:00,
2013-03-08 08:01:00,37.0,35.0,26.17,WSW,251,3.0,7.0,93,-99.99,,,-99.99,,2013-03-08 16:01:00,
2013-03-08 08:11:00,38.0,35.0,26.14,WSW,251,3.0,7.0,90,-99.99,,,-99.99,,2013-03-08 16:11:00,
2013-03-08 08:21:00,38.0,35.0,26.11,WSW,239,4.0,8.0,88,-99.99,,,-99.99,,2013-03-08 16:21:00,
2013-03-08 08:31:00,37.0,34.0,26.11,SW,227,4.0,9.0,88,-99.99,,,-99.99,,2013-03-08 16:31:00,
2013-03-08 08:41:00,37.0,34.0,26.14,WSW,242,5.0,12.0,90,-99.99,,,-99.99,,2013-03-08 16:41:00,
2013-03-08 08:51:00,37.0,34.0,26.14,SW,223,6.0,14.0,90,-99.99,,,-99.99,,2013-03-08 16:51:00,
2013-03-08 09:02:00,36.0,34.0,26.14,SSW,210,7.0,13.0,91,-99.99,,,-99.99,,2013-03-08 17:02:00,
2013-03-08 09:11:00,36.0,34.0,26.17,SW,227,5.0,12.0,93,-99.99,,,-99.99,,2013-03-08 17:11:00,
2013-03-08 09:21:00,37.0,35.0,26.17,WSW,257,4.0,8.0,93,-99.99,,,-99.99,,2013-03-08 17:21:00,
2013-03-08 09:31:00,37.0,35.0,26.17,WSW,256,4.0,9.0,92,-99.99,,,-99.99,,2013-03-08 17:31:00,
2013-03-08 09:41:00,38.0,35.0,26.14,WSW,253,5.0,14.0,90,-99.99,,,-99.99,,2013-03-08 17:41:00,
2013-03-08 09:52:00,39.0,35.0,26.08,West,262,5.0,12.0,85,-99.99,,,-99.99,,2013-03-08 17:52:00,
2013-03-08 10:01:00,38.0,34.0,26.08,West,271,4.0,10.0,85,-99.99,,,-99.99,,2013-03-08 18:01:00,
2013-03-08 10:11:00,38.0,33.0,26.02,SW,221,6.0,12.0,81,-99.99,,,-99.99,,2013-03-08 18:11:00,
2013-03-08 10:21:00,38.0,33.0,26.05,SSW,197,8.0,12.0,82,-99.99,,,-99.99,,2013-03-08 18:21:00,
2013-03-08 10:31:00,39.0,34.0,26.05,SSW,212,7.0,13.0,82,-99.99,,,-99.99,,2013-03-08 18:31:00,
2013-03-08 10:42:00,40.0,33.0,25.99,SSW,199,10.0,18.0,77,-99.99,,,-99.99,,2013-03-08 18:42:00,
2013-03-08 10:51:00,39.0,33.0,25.99,WSW,242,8.0,15.0,78,-99.99,,,-99.99,,2013-03-08 18:51:00,
2013-03-08 11:01:00,36.0,31.0,26.02,WNW,293,7.0,15.0,81,-99.99,,,-99.99,,2013-03-08 19:01:00,
2013-03-08 11:11:00,35.0,32.0,26.11,WNW,289,5.0,12.0,88,-99.99,,,-99.99,,2013-03-08 19:11:00,
2013-03-08 11:21:00,35.0,33.0,26.14,WNW,289,5.0,9.0,92,-99.99,,,-99.99,,2013-03-08 19:21:00,
2013-03-08 11:31:00,35.0,33.0,26.14,NW,308,4.0,8.0,92,-99.99,,,-99.99,,2013-03-08 19:31:00,
2013-03-08 11:41:00,36.0,34.0,26.14,NW,308,6.0,13.0,91,-99.99,,,-99.99,,2013-03-08 19:41:00,
2013-03-08 11:51:00,36.0,33.0,26.11,NW,318,5.0,13.0,89,-99.99,,,-99.99,,2013-03-08 19:51:00,
2013-03-08 12:01:00,36.0,33.0,26.11,NW,307,4.0,9.0,89,-99.99,,,-99.99,,2013-03-08 20:01:00,
2013-03-08 12:11:00,36.0,33.0,26.11,WSW,257,5.0,11.0,89,-99.99,,,-99.99,,2013-03-08 20:11:00,
2013-03-08 12:21:00,34.0,31.0,26.11,SW,236,6.0,11.0,90,-99.99,,,-99.99,,2013-03-08 20:21:00,
2013-03-08 12:31:00,33.0,31.0,26.14,WSW,237,5.0,11.0,93,-99.99,,,-99.99,,2013-03-08 20:31:00,
2013-03-08 12:41:00,32.0,31.0,26.17,West,278,2.0,8.0,95,-99.99,,,-99.99,,2013-03-08 20:41:00,
2013-03-08 12:52:00,33.0,32.0,26.17,SW,219,2.0,4.0,96,-99.99,,,-99.99,,2013-03-08 20:52:00,
2013-03-08 13:01:00,33.0,32.0,26.20,WNW,282,1.0,2.0,96,-99.99,,,-99.99,,2013-03-08 21:01:00,
2013-03-08 13:11:00,34.0,33.0,26.20,SSW,207,1.0,2.0,96,-99.99,,,-99.99,,2013-03-08 21:11:00,
2013-03-08 13:21:00,34.0,33.0,26.20,NW,308,1.0,2.0,96,-99.99,,,-99.99,,2013-03-08 21:21:00,
2013-03-08 13:32:00,33.0,32.0,26.20,SSW,197,5.0,7.0,96,-99.99,,,-99.99,,2013-03-08 21:32:00,
2013-03-08 13:41:00,33.0,32.0,26.20,SSW,197,5.0,7.0,96,-99.99,,,-99.99,,2013-03-08 21:41:00,
2013-03-08 13:51:00,33.0,32.0,26.20,SSW,192,5.0,7.0,96,-99.99,,,-99.99,,2013-03-08 21:51:00,
2013-03-08 14:01:00,33.0,32.0,26.20,SSW,193,6.0,8.0,96,-99.99,,,-99.99,,2013-03-08 22:01:00,
2013-03-08 14:11:00,33.0,32.0,26.20,SSW,204,5.0,8.0,97,-99.99,,,-99.99,,2013-03-08 22:11:00,
2013-03-08 14:21:00,34.0,33.0,26.20,SSW,197,6.0,9.0,97,-99.99,,,-99.99,,2013-03-08 22:21:00,
2013-03-08 14:32:00,33.0,32.0,26.20,South,187,5.0,7.0,97,-99.99,,,-99.99,,2013-03-08 22:32:00,
2013-03-08 14:41:00,33.0,32.0,26.20,SSW,209,1.0,4.0,97,-99.99,,,-99.99,,2013-03-08 22:41:00,
2013-03-08 14:52:00,33.0,32.0,26.20,West,278,1.0,1.0,97,-99.99,,,-99.99,,2013-03-08 22:52:00,
2013-03-08 15:01:00,33.0,32.0,26.20,WNW,285,1.0,2.0,97,-99.99,,,-99.99,,2013-03-08 23:01:00,
2013-03-08 15:11:00,33.0,32.0,26.20,NNW,348,2.0,2.0,97,-99.99,,,-99.99,,2013-03-08 23:11:00,
2013-03-08 15:21:00,33.0,32.0,26.20,North,4,1.0,2.0,97,-99.99,,,-99.99,,2013-03-08 23:21:00,
2013-03-08 15:31:00,33.0,32.0,26.20,North,351,2.0,3.0,97,-99.99,,,-99.99,,2013-03-08 23:31:00,
2013-03-08 15:41:00,33.0,32.0,26.20,NNW,342,2.0,3.0,97,-99.99,,,-99.99,,2013-03-08 23:41:00,
2013-03-08 15:52:00,33.0,32.0,26.20,NNE,15,1.0,1.0,97,-99.99,,,-99.99,,2013-03-08 23:52:00,
2013-03-08 16:01:00,33.0,32.0,26.20,NNE,15,1.0,1.0,97,-99.99,,,-99.99,,2013-03-09 00:01:00,
2013-03-08 16:11:00,34.0,33.0,26.20,East,96,1.0,2.0,97,-99.99,,,-99.99,,2013-03-09 00:11:00,
2013-03-08 16:21:00,34.0,33.0,26.20,East,100,1.0,3.0,97,-99.99,,,-99.99,,2013-03-09 00:21:00,
2013-03-08 16:31:00,34.0,33.0,26.20,South,176,5.0,7.0,96,-99.99,,,-99.99,,2013-03-09 00:31:00,
2013-03-08 16:42:00,34.0,33.0,26.20,South,180,6.0,7.0,96,-99.99,,,-99.99,,2013-03-09 00:42:00,
2013-03-08 16:50:00,35.0,34.0,26.20,SSW,212,5.0,11.0,95,-99.99,,,-99.99,,2013-03-09 00:50:00,
2013-03-08 16:51:00,34.0,33.0,26.20,South,186,4.0,7.0,96,-99.99,,,-99.99,,2013-03-09 00:51:00,
2013-03-08 17:01:00,35.0,34.0,26.20,SSW,200,4.0,7.0,96,-99.99,,,-99.99,,2013-03-09 01:01:00,
2013-03-08 17:12:00,35.0,34.0,26.20,SW,221,4.0,9.0,96,-99.99,,,-99.99,,2013-03-09 01:12:00,
2013-03-08 17:21:00,35.0,34.0,26.20,SSW,212,5.0,11.0,95,-99.99,,,-99.99,,2013-03-09 01:21:00,
2013-03-08 17:31:00,35.0,34.0,26.20,SSW,212,5.0,11.0,95,-99.99,,,-99.99,,2013-03-09 01:31:00,
2013-03-08 17:41:00,35.0,34.0,26.20,SSW,212,5.0,11.0,95,-99.99,,,-99.99,,2013-03-09 01:41:00,
2013-03-08 19:11:00,36.0,35.0,26.20,West,261,3.0,8.0,95,-99.99,,,-99.99,,2013-03-09 03:11:00,
2013-03-08 19:21:00,36.0,35.0,26.20,West,261,3.0,8.0,95,-99.99,,,-99.99,,2013-03-09 03:21:00,
2013-03-08 19:31:00,36.0,35.0,26.20,WSW,257,5.0,12.0,95,-99.99,,,-99.99,,2013-03-09 03:31:00,
2013-03-08 19:41:00,36.0,35.0,26.20,West,266,4.0,12.0,95,-99.99,,,-99.99,,2013-03-09 03:41:00,
2013-03-08 19:52:00,35.0,34.0,26.20,West,279,6.0,14.0,95,-99.99,,,-99.99,,2013-03-09 03:52:00,
2013-03-08 20:01:00,35.0,33.0,26.17,West,274,5.0,11.0,94,-99.99,,,-99.99,,2013-03-09 04:01:00,
2013-03-08 20:11:00,36.0,34.0,26.17,West,270,4.0,12.0,94,-99.99,,,-99.99,,2013-03-09 04:11:00,
2013-03-08 20:22:00,36.0,34.0,26.17,West,263,5.0,12.0,94,-99.99,,,-99.99,,2013-03-09 04:22:00,
2013-03-08 20:31:00,36.0,34.0,26.17,WSW,258,4.0,10.0,93,-99.99,,,-99.99,,2013-03-09 04:31:00,
2013-03-08 20:41:00,36.0,34.0,26.17,West,276,6.0,14.0,92,-99.99,,,-99.99,,2013-03-09 04:41:00,
2013-03-08 20:51:00,35.0,33.0,26.14,WSW,258,5.0,14.0,92,-99.99,,,-99.99,,2013-03-09 04:51:00,
2013-03-08 21:01:00,35.0,33.0,26.14,WSW,258,5.0,14.0,92,-99.99,,,-99.99,,2013-03-09 05:01:00,
2013-03-08 21:11:00,35.0,32.0,26.14,WSW,245,5.0,11.0,90,-99.99,,,-99.99,,2013-03-09 05:11:00,
2013-03-08 21:21:00,36.0,33.0,26.11,WSW,239,5.0,14.0,89,-99.99,,,-99.99,,2013-03-09 05:21:00,
2013-03-08 21:31:00,36.0,33.0,26.11,WSW,244,4.0,9.0,90,-99.99,,,-99.99,,2013-03-09 05:31:00,
2013-03-08 21:42:00,36.0,34.0,26.14,West,269,3.0,9.0,91,-99.99,,,-99.99,,2013-03-09 05:42:00,
2013-03-08 21:52:00,36.0,34.0,26.14,SW,234,5.0,11.0,92,-99.99,,,-99.99,,2013-03-09 05:52:00,
2013-03-08 22:01:00,36.0,34.0,26.14,SW,234,5.0,11.0,92,-99.99,,,-99.99,,2013-03-09 06:01:00,
2013-03-08 22:11:00,36.0,34.0,26.17,WSW,245,3.0,8.0,92,-99.99,,,-99.99,,2013-03-09 06:11:00,
2013-03-08 22:22:00,36.0,34.0,26.17,SW,226,5.0,10.0,94,-99.99,,,-99.99,,2013-03-09 06:22:00,
2013-03-08 22:31:00,36.0,35.0,26.20,SW,226,4.0,9.0,96,-99.99,,,-99.99,,2013-03-09 06:31:00,
2013-03-08 22:42:00,36.0,35.0,26.20,SW,226,4.0,9.0,96,-99.99,,,-99.99,,2013-03-09 06:42:00,
2013-03-08 22:51:00,36.0,35.0,26.20,WSW,237,4.0,9.0,96,-99.99,,,-99.99,,2013-03-09 06:51:00,
2013-03-08 23:01:00,36.0,35.0,26.20,WSW,239,4.0,8.0,96,-99.99,,,-99.99,,2013-03-09 07:01:00,
2013-03-08 23:11:00,36.0,35.0,26.20,SW,218,4.0,11.0,96,-99.99,,,-99.99,,2013-03-09 07:11:00,
2013-03-08 23:21:00,36.0,35.0,26.20,SW,220,5.0,9.0,96,-99.99,,,-99.99,,2013-03-09 07:21:00,
2013-03-08 23:31:00,36.0,35.0,26.20,SW,228,4.0,8.0,97,-99.99,,,-99.99,,2013-03-09 07:31:00,
2013-03-08 23:41:00,36.0,35.0,26.20,SW,228,4.0,8.0,97,-99.99,,,-99.99,,2013-03-09 07:41:00,
2013-03-08 23:51:00,36.0,35.0,26.20,SW,221,5.0,10.0,97,-99.99,,,-99.99,,2013-03-09 07:51:00,